User: anonymous   Login
Location: NJAA Observatory
(40.6819°N, 74.8979°W)
Time: 21:48:23
(UTC-04:00)
Language:

Cosmos 1328 Rocket - Orbit

View from above orbital plane
View from above orbital plane
View from above satellite
View from above satellite

Ground track
Ground track

The orbit data is extracted from the following two-line orbital elements,

1 12988U 81117B   16243.89479147 +.00000109 +00000-0 +99962-5 0  9991
2 12988 082.5275 345.6276 0019699 087.1299 051.8806 14.84602945855696
Epoch (UTC): 30 August 2016 21:28:29
Eccentricity: 0.0019699
inclination: 82.5275°
perigee height: 601 km
apogee height: 628 km
right ascension of ascending node: 345.6276°
argument of perigee: 87.1299°
revolutions per day: 14.84602945
mean anomaly at epoch: 51.8806°
orbit number at epoch: 85569

The dashed part of the orbit path shows where the satellite is in the earth's shadow,  

DLR